When you browse on this site, cookies collect data to enhance your experience and personalize the content and advertising you see.
Visit our Privacy Policy to learn more. By continuing to use the site, you agree to this use of cookies and data.
  • In Hungary
  • List of Countries
  • For 7 days
  • Water Temperature
  • Satellite Maps
  • Weather Map
  • News
  • Weather Widgets
  • user-avatar
    Login

    Hourly Weather Surprise

    Today, 13 December, Thursday

    Time Temperature Precipitation Wind Pressure Humidity
    00:00 +13°C° 0 mm 3 mps 734 mmHg 36%
    01:00 +13°C° 0 mm 2 mps 734 mmHg 36%
    02:00 +13°C° 0 mm 2 mps 734 mmHg 36%
    03:00 +12°C° 0 mm 2 mps 735 mmHg 34%
    04:00 +11°C° 0 mm 3 mps 735 mmHg 33%
    05:00 +11°C° 0 mm 3 mps 736 mmHg 31%
    06:00 +10°C° 0 mm 3 mps 736 mmHg 29%
    07:00 +10°C° 0 mm 3 mps 737 mmHg 27%
    08:00 +10°C° 0 mm 3 mps 737 mmHg 25%
    09:00 +13°C° 0 mm 2 mps 737 mmHg 21%
    10:00 +15°C° 0 mm 2 mps 737 mmHg 16%
    11:00 +17°C° 0 mm 2 mps 737 mmHg 12%
    12:00 +18°C° 0 mm 2 mps 737 mmHg 11%
    13:00 +19°C° 0 mm 1 mps 736 mmHg 10%
    14:00 +20°C° 0 mm 1 mps 736 mmHg 9%
    15:00 +20°C° 0 mm 1 mps 735 mmHg 12%
    16:00 +19°C° 0 mm 1 mps 735 mmHg 14%
    17:00 +19°C° 0 mm 1 mps 735 mmHg 16%
    18:00 +18°C° 0 mm 1 mps 735 mmHg 16%
    19:00 +16°C° 0 mm 2 mps 736 mmHg 16%
    20:00 +15°C° 0 mm 2 mps 736 mmHg 16%
    21:00 +15°C° 0 mm 2 mps 736 mmHg 17%
    22:00 +14°C° 0 mm 2 mps 736 mmHg 17%
    23:00 +14°C° 0 mm 2 mps 736 mmHg 17%

    Tomorrow, 14 December, Friday

    Time Temperature Precipitation Wind Pressure Humidity
    00:00 +13°C° 0 mm 2 mps 736 mmHg 17%
    01:00 +13°C° 0 mm 2 mps 736 mmHg 17%
    02:00 +12°C° 0 mm 3 mps 736 mmHg 17%
    03:00 +11°C° 0 mm 3 mps 736 mmHg 18%
    04:00 +12°C° 0 mm 2 mps 735 mmHg 18%
    05:00 +12°C° 0 mm 2 mps 735 mmHg 18%
    06:00 +12°C° 0 mm 2 mps 736 mmHg 18%
    07:00 +12°C° 0 mm 2 mps 736 mmHg 18%
    08:00 +12°C° 0 mm 2 mps 736 mmHg 18%
    09:00 +13°C° 0 mm 3 mps 736 mmHg 17%
    10:00 +16°C° 0 mm 3 mps 736 mmHg 15%
    11:00 +18°C° 0 mm 3 mps 736 mmHg 13%
    12:00 +18°C° 0 mm 3 mps 735 mmHg 12%
    13:00 +19°C° 0 mm 3 mps 734 mmHg 11%
    14:00 +20°C° 0 mm 3 mps 733 mmHg 10%
    15:00 +20°C° 0 mm 2 mps 733 mmHg 12%
    16:00 +19°C° 0 mm 2 mps 733 mmHg 14%
    17:00 +19°C° 0 mm 1 mps 732 mmHg 17%
    18:00 +19°C° 0 mm 1 mps 733 mmHg 16%
    19:00 +18°C° 0 mm 1 mps 733 mmHg 16%
    20:00 +18°C° 0 mm 1 mps 733 mmHg 15%
    21:00 +16°C° 0 mm 2 mps 733 mmHg 15%
    22:00 +16°C° 0 mm 2 mps 733 mmHg 15%
    23:00 +16°C° 0 mm 2 mps 733 mmHg 15%

    Day after tomorrow, 15 December, Saturday

    Time Temperature Precipitation Wind Pressure Humidity
    00:00 +16°C° 0 mm 2 mps 733 mmHg 16%
    01:00 +16°C° 0 mm 2 mps 732 mmHg 16%
    02:00 +15°C° 0 mm 2 mps 732 mmHg 17%
    03:00 +15°C° 0 mm 2 mps 732 mmHg 17%
    04:00 +15°C° 0 mm 2 mps 732 mmHg 17%
    05:00 +15°C° 0 mm 2 mps 731 mmHg 17%
    06:00 +15°C° 0 mm 2 mps 732 mmHg 17%
    07:00 +15°C° 0 mm 2 mps 732 mmHg 17%
    08:00 +15°C° 0 mm 2 mps 732 mmHg 17%
    09:00 +17°C° 0 mm 2 mps 733 mmHg 15%
    10:00 +18°C° 0 mm 2 mps 733 mmHg 13%
    11:00 +20°C° 0 mm 2 mps 733 mmHg 11%
    12:00 +21°C° 0 mm 2 mps 732 mmHg 10%
    13:00 +23°C° 0 mm 2 mps 732 mmHg 9%
    14:00 +24°C° 0 mm 1 mps 731 mmHg 8%
    15:00 +23°C° 0 mm 1 mps 731 mmHg 10%
    16:00 +22°C° 0 mm 1 mps 731 mmHg 13%
    17:00 +21°C° 0 mm 1 mps 731 mmHg 15%
    18:00 +20°C° 0 mm 1 mps 732 mmHg 15%
    19:00 +19°C° 0 mm 1 mps 732 mmHg 16%
    20:00 +18°C° 0 mm 1 mps 733 mmHg 16%
    21:00 +16°C° 0 mm 1 mps 733 mmHg 16%
    22:00 +16°C° 0 mm 1 mps 733 mmHg 15%
    23:00 +16°C° 0 mm 1 mps 733 mmHg 15%

    16 December, Sunday

    Time Temperature Precipitation Wind Pressure Humidity
    00:00 +16°C° 0 mm 2 mps 733 mmHg 15%
    01:00 +15°C° 0 mm 2 mps 733 mmHg 16%
    02:00 +15°C° 0 mm 2 mps 733 mmHg 16%
    03:00 +15°C° 0 mm 2 mps 733 mmHg 17%
    04:00 +14°C° 0 mm 2 mps 733 mmHg 18%
    05:00 +14°C° 0 mm 2 mps 733 mmHg 19%
    06:00 +14°C° 0 mm 2 mps 734 mmHg 20%
    07:00 +14°C° 0 mm 2 mps 734 mmHg 20%
    08:00 +14°C° 0 mm 2 mps 734 mmHg 21%
    09:00 +16°C° 0 mm 2 mps 734 mmHg 18%
    10:00 +18°C° 0 mm 2 mps 735 mmHg 16%
    11:00 +20°C° 0 mm 2 mps 735 mmHg 14%
    12:00 +21°C° 0 mm 2 mps 734 mmHg 12%
    13:00 +23°C° 0 mm 2 mps 734 mmHg 11%
    14:00 +23°C° 0 mm 2 mps 733 mmHg 10%
    15:00 +21°C° 0 mm 2 mps 733 mmHg 12%
    16:00 +20°C° 0 mm 2 mps 733 mmHg 14%
    17:00 +21°C° 0 mm 1 mps 733 mmHg 16%
    18:00 +20°C° 0 mm 1 mps 734 mmHg 16%
    19:00 +20°C° 0 mm 1 mps 734 mmHg 17%
    20:00 +19°C° 0 mm 1 mps 734 mmHg 17%
    21:00 +19°C° 0 mm 1 mps 734 mmHg 18%
    22:00 +19°C° 0 mm 1 mps 734 mmHg 19%
    23:00 +16°C° 0 mm 0 mps 734 mmHg 20%

    17 December, Monday

    Time Temperature Precipitation Wind Pressure Humidity
    00:00 +18°C° 0 mm 1 mps 734 mmHg 20%
    01:00 +18°C° 0 mm 1 mps 734 mmHg 20%
    02:00 +18°C° 0 mm 1 mps 733 mmHg 20%
    03:00 +16°C° 0 mm 1 mps 733 mmHg 21%
    04:00 +16°C° 0 mm 1 mps 733 mmHg 23%
    05:00 +16°C° 0 mm 1 mps 733 mmHg 24%
    06:00 +16°C° 0 mm 1 mps 733 mmHg 26%
    07:00 +15°C° 0 mm 2 mps 733 mmHg 29%
    08:00 +15°C° 0 mm 2 mps 734 mmHg 31%
    09:00 +17°C° 0 mm 2 mps 733 mmHg 30%
    10:00 +18°C° 0 mm 3 mps 733 mmHg 30%
    11:00 +20°C° 0 mm 3 mps 733 mmHg 29%
    12:00 +20°C° 0 mm 3 mps 733 mmHg 29%
    13:00 +20°C° 0 mm 3 mps 732 mmHg 29%
    14:00 +21°C° 0 mm 2 mps 732 mmHg 29%
    15:00 +20°C° 0 mm 2 mps 732 mmHg 31%
    16:00 +21°C° 0 mm 1 mps 732 mmHg 33%
    17:00 +21°C° 0 mm 1 mps 731 mmHg 34%
    18:00 +20°C° 0 mm 1 mps 732 mmHg 36%
    19:00 +18°C° 0 mm 2 mps 732 mmHg 38%
    20:00 +18°C° 0 mm 2 mps 732 mmHg 40%
    21:00 +17°C° 0 mm 2 mps 732 mmHg 42%
    22:00 +17°C° 0 mm 2 mps 732 mmHg 44%
    23:00 +16°C° 0 mm 2 mps 732 mmHg 46%

    18 December, Tuesday

    Time Temperature Precipitation Wind Pressure Humidity
    00:00 +16°C° 0 mm 2 mps 731 mmHg 48%
    01:00 +15°C° 0 mm 2 mps 731 mmHg 49%
    02:00 +14°C° 0 mm 3 mps 731 mmHg 51%
    03:00 +14°C° 0 mm 3 mps 731 mmHg 51%
    04:00 +13°C° 0 mm 3 mps 731 mmHg 51%
    05:00 +13°C° 0 mm 3 mps 731 mmHg 52%
    06:00 +13°C° 0 mm 3 mps 731 mmHg 52%
    07:00 +13°C° 0 mm 3 mps 731 mmHg 51%
    08:00 +14°C° 0 mm 2 mps 732 mmHg 51%
    09:00 +16°C° 0 mm 2 mps 732 mmHg 46%
    10:00 +17°C° 0 mm 2 mps 732 mmHg 41%
    11:00 +19°C° 0 mm 2 mps 732 mmHg 36%
    12:00 +19°C° 0 mm 2 mps 731 mmHg 34%
    13:00 +21°C° 0 mm 1 mps 731 mmHg 32%
    14:00 +22°C° 0 mm 1 mps 730 mmHg 30%
    15:00 +21°C° 0 mm 1 mps 730 mmHg 32%
    16:00 +21°C° 0 mm 1 mps 730 mmHg 34%
    17:00 +21°C° 0 mm 1 mps 730 mmHg 36%
    18:00 +20°C° 0 mm 1 mps 730 mmHg 37%
    19:00 +19°C° 0 mm 1 mps 731 mmHg 39%
    20:00 +17°C° 0 mm 2 mps 731 mmHg 40%
    21:00 +17°C° 0 mm 2 mps 731 mmHg 40%
    22:00 +16°C° 0 mm 3 mps 731 mmHg 41%
    23:00 +16°C° 0 mm 3 mps 732 mmHg 42%
    Show more